This demonstration page uses our WeatherBlox Daily Observations layout. Learn more.

Hourly Observations for December 15, 2016

Temp ( °F °C ) Dew Point ( °F °C ) Humidity (%) Winds ( mph kmh ) Pressure ( in mb ) Visibility ( mi km ) Precip ( " mm )
12:15 am 00:15 Cloudy 32 0 27 -3 80 80 undefined N/A 29.97 1015 10 16.0934 0 0
12:35 am 00:35 Cloudy 32 0 28 -2 87 87 undefined N/A 29.94 1014 10 16.0934 0 0
12:55 am 00:55 Cloudy 32 0 28 -2 87 87 undefined N/A 29.94 1014 10 16.0934 0 0
1:15 am 01:15 Cloudy 32 0 28 -2 87 87 undefined N/A 29.94 1014 10 16.0934 0 0
1:35 am 01:35 Cloudy 32 0 27 -3 80 80 undefined N/A 29.94 1014 10 16.0934 0 0
1:55 am 01:55 Partly Cloudy 34 1 27 -3 75 75 undefined N/A 29.97 1015 10 16.0934 0 0
2:15 am 02:15 Partly Cloudy 34 1 27 -3 75 75 undefined N/A 29.94 1014 10 16.0934 0 0
2:35 am 02:35 Partly Cloudy 34 1 27 -3 75 75 undefined N/A 29.94 1014 10 16.0934 0 0
2:55 am 02:55 Clear 36 2 23 -5 60 60 undefined N/A 29.94 1014 10 16.0934 0 0
3:15 am 03:15 Clear 34 1 23 -5 65 65 undefined N/A 29.94 1014 10 16.0934 0 0
3:35 am 03:35 Clear 34 1 18 -8 51 51 undefined N/A 29.94 1014 10 16.0934 0 0
3:55 am 03:55 Clear 34 1 14 -10 44 44 undefined N/A 29.94 1014 10 16.0934 0 0
4:15 am 04:15 Clear 32 0 18 -8 55 55 undefined N/A 29.94 1014 10 16.0934 0 0
4:35 am 04:35 Clear 32 0 16 -9 51 51 undefined N/A 29.97 1015 10 16.0934 0 0
4:55 am 04:55 Clear 32 0 12 -11 44 44 undefined N/A 29.97 1015 10 16.0934 0 0
5:15 am 05:15 Clear 30 -1 10 -12 43 43 undefined N/A 29.97 1015 10 16.0934 0 0
5:35 am 05:35 Clear 30 -1 9 -13 40 40 undefined N/A 30 1016 10 16.0934 0 0
5:55 am 05:55 Clear 28 -2 5 -15 37 37 undefined N/A 30 1016 10 16.0934 0 0
6:15 am 06:15 Clear 28 -2 5 -15 37 37 undefined N/A 30 1016 10 16.0934 0 0
6:35 am 06:35 Clear 28 -2 5 -15 37 37 undefined N/A 30.03 1017 10 16.0934 0 0
6:55 am 06:55 Clear 27 -3 5 -15 39 39 undefined N/A 30.03 1017 10 16.0934 0 0
7:15 am 07:15 Clear 27 -3 3 -16 36 36 undefined N/A 30.06 1018 10 16.0934 0 0
7:35 am 07:35 Sunny 27 -3 3 -16 36 36 undefined N/A 30.06 1018 10 16.0934 0 0
7:55 am 07:55 Sunny 25 -4 1 -17 36 36 undefined N/A 30.06 1018 7 11.26538 0 0
8:15 am 08:15 Sunny 25 -4 3 -16 39 39 undefined N/A 30.09 1019 10 16.0934 0 0
8:35 am 08:35 Sunny 25 -4 5 -15 42 42 undefined N/A 30.09 1019 10 16.0934 0 0
8:55 am 08:55 Sunny 25 -4 3 -16 39 39 undefined N/A 30.12 1020 10 16.0934 0 0
9:15 am 09:15 Sunny 25 -4 3 -16 39 39 undefined N/A 30.12 1020 10 16.0934 0 0
9:35 am 09:35 Sunny 25 -4 1 -17 36 36 undefined N/A 30.15 1021 10 16.0934 0 0
9:55 am 09:55 Sunny 23 -5 1 -17 39 39 undefined N/A 30.15 1021 10 16.0934 0 0
10:15 am 10:15 Sunny 25 -4 1 -17 36 36 undefined N/A 30.18 1022 10 16.0934 0 0
10:35 am 10:35 Sunny 27 -3 1 -17 33 33 undefined N/A 30.18 1022 10 16.0934 0 0
10:55 am 10:55 Sunny 27 -3 1 -17 33 33 undefined N/A 30.18 1022 10 16.0934 0 0
11:15 am 11:15 Partly Cloudy 27 -3 0 -18 31 31 undefined N/A 30.18 1022 10 16.0934 0 0
11:35 am 11:35 Partly Cloudy 25 -4 0 -18 33 33 undefined N/A 30.18 1022 10 16.0934 0 0
11:55 am 11:55 Mostly Cloudy 27 -3 1 -17 33 33 undefined N/A 30.18 1022 10 16.0934 0 0
12:15 pm 12:15 Mostly Cloudy 27 -3 1 -17 33 33 undefined N/A 30.18 1022 10 16.0934 0 0
12:35 pm 12:35 Partly Cloudy 27 -3 1 -17 33 33 undefined N/A 30.18 1022 10 16.0934 0 0
12:55 pm 12:55 Mostly Cloudy 27 -3 1 -17 33 33 undefined N/A 30.21 1023 10 16.0934 0 0
1:15 pm 13:15 Mostly Cloudy 27 -3 0 -18 31 31 undefined N/A 30.21 1023 10 16.0934 0 0
1:35 pm 13:35 Partly Cloudy 25 -4 1 -17 36 36 undefined N/A 30.21 1023 10 16.0934 0 0
1:55 pm 13:55 Partly Cloudy 25 -4 1 -17 36 36 undefined N/A 30.21 1023 10 16.0934 0 0
2:15 pm 14:15 Sunny 23 -5 1 -17 39 39 undefined N/A 30.24 1024 10 16.0934 0 0
2:35 pm 14:35 Sunny 23 -5 1 -17 39 39 undefined N/A 30.24 1024 10 16.0934 0 0
2:55 pm 14:55 Sunny 23 -5 0 -18 36 36 undefined N/A 30.24 1024 10 16.0934 0 0
3:15 pm 15:15 Sunny 23 -5 0 -18 36 36 undefined N/A 30.24 1024 10 16.0934 0 0
3:35 pm 15:35 Sunny 23 -5 0 -18 36 36 undefined N/A 30.27 1025 10 16.0934 0 0
3:55 pm 15:55 Sunny 23 -5 -2 -19 33 33 undefined N/A 30.27 1025 10 16.0934 0 0
4:15 pm 16:15 Sunny 21 -6 -2 -19 35 35 undefined N/A 30.27 1025 10 16.0934 0 0
4:35 pm 16:35 Sunny 21 -6 -2 -19 35 35 undefined N/A 30.27 1025 10 16.0934 0 0
4:55 pm 16:55 Clear 21 -6 0 -18 38 38 undefined N/A 30.3 1026 10 16.0934 0 0
5:15 pm 17:15 Clear 21 -6 0 -18 38 38 undefined N/A 30.3 1026 10 16.0934 0 0
5:35 pm 17:35 Clear 19 -7 0 -18 42 42 undefined N/A 30.33 1027 10 16.0934 0 0
5:55 pm 17:55 Clear 19 -7 0 -18 42 42 undefined N/A 30.36 1028 10 16.0934 0 0
6:15 pm 18:15 Clear 19 -7 0 -18 42 42 undefined N/A 30.36 1028 10 16.0934 0 0
6:35 pm 18:35 Clear 19 -7 0 -18 42 42 undefined N/A 30.39 1029 10 16.0934 0 0
6:55 pm 18:55 Clear 19 -7 0 -18 42 42 undefined N/A 30.39 1029 10 16.0934 0 0
7:15 pm 19:15 Clear 19 -7 0 -18 42 42 undefined N/A 30.39 1029 10 16.0934 0 0
7:35 pm 19:35 Clear 19 -7 -2 -19 38 38 undefined N/A 30.42 1030 10 16.0934 0 0
7:55 pm 19:55 Clear 19 -7 -2 -19 38 38 undefined N/A 30.42 1030 10 16.0934 0 0
8:15 pm 20:15 Clear 19 -7 0 -18 42 42 undefined N/A 30.42 1030 10 16.0934 0 0
8:35 pm 20:35 Clear 18 -8 0 -18 45 45 undefined N/A 30.42 1030 10 16.0934 0 0
8:55 pm 20:55 Clear 18 -8 0 -18 45 45 undefined N/A 30.42 1030 10 16.0934 0 0
9:15 pm 21:15 Clear 18 -8 0 -18 45 45 undefined N/A 30.45 1031 10 16.0934 0 0
9:35 pm 21:35 Clear 18 -8 0 -18 45 45 undefined N/A 30.45 1031 10 16.0934 0 0
9:55 pm 21:55 Clear 18 -8 0 -18 45 45 undefined N/A 30.45 1031 10 16.0934 0 0
10:15 pm 22:15 Clear 18 -8 0 -18 45 45 undefined N/A 30.45 1031 10 16.0934 0 0
10:35 pm 22:35 Clear 18 -8 0 -18 45 45 undefined N/A 30.45 1031 10 16.0934 0 0
10:55 pm 22:55 Clear 16 -9 1 -17 53 53 undefined N/A 30.45 1031 10 16.0934 0 0
11:15 pm 23:15 Clear 18 -8 1 -17 49 49 undefined N/A 30.45 1031 10 16.0934 0 0
11:35 pm 23:35 Clear 18 -8 1 -17 49 49 undefined N/A 30.45 1031 10 16.0934 0 0
11:55 pm 23:55 Clear 18 -8 0 -18 45 45 undefined N/A 30.45 1031 10 16.0934 0 0

Powered by AerisWeather